FLOCK 3P-57

Last updated on Wed Feb 14 2018 16:20:24 GMT+0000 (Coordinated Universal Time)

1 41978U 17008AG 18044.91349781 .00001680 00000-0 72499-4 0 9994 2 41978 97.4660 110.4447 0009645 70.8893 289.3388 15.23906305 55176
UTC large
Height (km)
Speed (km/s)
/
Latitude / Longitude
Inclination (degrees)
Orbital Period (minutes)
Azimuth
Elevation
Range (km)
Doppler Factor

Next 0 passes for location: London (51.5072 / 0.1276)

Sorry there are no passes over London.